Location: Poughquag
(41.6090°N, 73.6820°W)
Time: 00:34:48
(UTC-05:00)

Tiros 1 despin weight - All Passes

Search period start: 29 November 2023 00:00
Search period end: 09 December 2023 00:00
Orbit: 583 x 628 km, 48.2° (Epoch: 28 November)

Date Brightness Start Highest point End Pass type
(mag) Time Alt. Az. Time Alt. Az. Time Alt. Az.
29 Nov - 00:13:13 10° WNW 00:17:23 41° NNE 00:21:36 10° E night (unlit)
29 Nov - 01:54:29 10° WNW 01:58:52 70° SSW 02:03:18 10° SE night (unlit)
29 Nov - 03:37:15 10° W 03:39:32 14° SW 03:41:51 10° SSW night (unlit)
29 Nov - 19:20:57 10° SSW 19:25:01 40° SE 19:29:07 10° ENE visible
29 Nov - 21:01:58 10° W 21:06:13 53° NNW 21:10:30 10° ENE night (unlit)
29 Nov - 22:44:04 10° WNW 22:48:03 34° N 22:52:05 10° ENE night (unlit)
30 Nov - 00:25:36 10° WNW 00:29:54 54° NNE 00:34:15 10° E night (unlit)
30 Nov - 02:06:58 10° WNW 02:11:07 40° SW 02:15:18 10° SSE night (unlit)
30 Nov - 17:54:26 10° SSE 17:56:37 14° SE 17:58:47 10° ESE visible
30 Nov - 19:32:56 10° SW 19:37:15 70° SSE 19:41:36 10° ENE visible
30 Nov - 21:14:36 10° W 21:18:43 41° NNW 21:22:53 10° ENE night (unlit)
30 Nov - 22:56:36 10° WNW 23:00:39 36° N 23:04:44 10° ENE night (unlit)
01 Dec - 00:37:55 10° WNW 00:42:19 79° NNE 00:46:46 10° ESE night (unlit)
01 Dec - 02:19:44 10° W 02:23:15 23° SW 02:26:46 10° S night (unlit)
01 Dec - 18:05:05 10° SSW 18:08:39 25° SE 18:12:12 10° E visible
01 Dec - 19:45:15 10° WSW 19:49:35 74° NNW 19:53:57 10° ENE visible
01 Dec - 21:27:16 10° WNW 21:31:17 35° N 21:35:19 10° ENE night (unlit)
01 Dec - 23:09:02 10° WNW 23:13:12 42° NNE 23:17:24 10° E night (unlit)
02 Dec - 00:50:17 10° WNW 00:54:38 65° SSW 00:59:01 10° SE night (unlit)
02 Dec - 02:33:19 10° WSW 02:35:16 13° SW 02:37:11 10° SSW night (unlit)
02 Dec - 18:16:38 10° SW 18:20:46 44° SE 18:24:54 10° ENE visible
02 Dec - 19:57:45 10° W 20:02:00 51° NNW 20:06:16 10° ENE visible
02 Dec - 21:39:52 10° WNW 21:43:51 34° N 21:47:52 10° ENE night (unlit)
02 Dec - 23:21:21 10° WNW 23:25:40 57° NNE 23:30:01 10° E night (unlit)
03 Dec - 01:02:46 10° WNW 01:06:50 37° SW 01:10:55 10° SSE night (unlit)
03 Dec - 16:49:50 10° SSE 16:52:18 15° SE 16:54:45 10° E visible
03 Dec - 18:28:38 10° SW 18:32:59 75° SSE 18:37:19 10° ENE visible
03 Dec - 20:10:22 10° W 20:14:28 40° NNW 20:18:36 10° ENE visible
03 Dec - 21:52:21 10° WNW 21:56:24 36° N 22:00:28 10° ENE night (unlit)
03 Dec - 23:33:39 10° WNW 23:38:03 84° NNE 23:42:27 10° ESE night (unlit)
04 Dec - 01:15:34 10° W 01:18:55 21° SW 01:22:17 10° S night (unlit)
04 Dec - 17:00:38 10° SSW 17:04:19 27° SE 17:07:58 10° E visible
04 Dec - 18:40:56 10° WSW 18:45:17 70° NNW 18:49:38 10° ENE visible
04 Dec - 20:23:00 10° WNW 20:26:59 35° N 20:31:01 10° ENE visible
04 Dec - 22:04:44 10° WNW 22:08:54 44° NNE 22:13:06 10° E night (unlit)
04 Dec - 23:45:59 10° WNW 23:50:18 61° SW 23:54:39 10° SE night (unlit)
05 Dec - 01:29:25 10° WSW 01:30:53 11° SW 01:32:21 10° SSW night (unlit)
05 Dec - 17:12:13 10° SW 17:16:24 47° SE 17:20:35 10° ENE visible
05 Dec - 18:53:26 10° W 18:57:41 49° NNW 19:01:55 10° ENE visible
05 Dec - 20:35:33 10° WNW 20:39:32 34° N 20:43:32 10° ENE visible
05 Dec - 22:17:02 10° WNW 22:21:20 59° NNE 22:25:39 10° ESE night (unlit)
05 Dec - 23:58:29 10° WNW 00:02:27 35° SW 00:06:28 10° SSE night (unlit)
06 Dec - 15:45:10 10° S 15:47:53 16° SE 15:50:35 10° E daylight
06 Dec - 17:24:14 10° SW 17:28:36 80° SSE 17:32:58 10° ENE visible
06 Dec - 19:06:02 10° W 19:10:07 39° NNW 19:14:14 10° ENE visible
06 Dec - 20:48:00 10° WNW 20:52:03 37° N 20:56:07 10° ENE night (unlit)
06 Dec - 22:29:17 10° WNW 22:33:40 88° NE 22:38:03 10° ESE night (unlit)
07 Dec - 00:11:19 10° W 00:14:29 20° SW 00:17:41 10° S night (unlit)
07 Dec - 15:56:05 10° SSW 15:59:52 29° SE 16:03:38 10° E daylight
07 Dec - 17:36:33 10° WSW 17:40:53 67° NNW 17:45:14 10° ENE visible
07 Dec - 19:18:38 10° WNW 19:22:38 34° N 19:26:38 10° ENE visible
07 Dec - 21:00:20 10° WNW 21:04:31 45° NNE 21:08:43 10° E night (unlit)
07 Dec - 22:41:36 10° WNW 22:45:52 56° SW 22:50:10 10° SE night (unlit)
08 Dec - 00:25:42 10° WSW 00:26:25 10° SW 00:27:08 10° SW night (unlit)
08 Dec - 16:07:42 10° SW 16:11:58 50° SE 16:16:11 10° ENE daylight
08 Dec - 17:49:02 10° W 17:53:15 47° NNW 17:57:29 10° ENE visible
08 Dec - 19:31:09 10° WNW 19:35:08 34° N 19:39:07 10° ENE visible
08 Dec - 21:12:35 10° WNW 21:16:54 62° NNE 21:21:14 10° ESE night (unlit)
08 Dec - 22:54:05 10° WNW 22:57:59 32° SW 23:01:53 10° SSE night (unlit)
